Regional Weather Roundup
Issued by NWS

Home | Current Version | Previous Version | Text Only | Print | Product List | Glossary On
Versions: 1 2 3 4 5 6 7 8 9 10 11 12 13 14 15 16 17 18 19 20 21 22 23 24 25 26 27
000
ASUS45 KPSR 260410
RWRAZ

ARIZONA HOURLY REGIONAL WEATHER ROUNDUP
NATIONAL WEATHER SERVICE PHOENIX AZ
900 PM MST FRI MAY 25 2018

NOTE: FAIR INDICATES FEW OR NO CLOUDS BELOW 12,000 FEET WITH NO
SIGNIFICANT WEATHER AND/OR OBSTRUCTIONS TO VISIBILITY.

AZZ001>003-036-260500-
NORTHWEST ARIZONA

CITY           SKY/WX    TMP DP  RH WIND       PRES   REMARKS
KINGMAN          N/A     74  22  14 MISG      29.92R
$$

AZZ004>008-015-016-018-260500-
NORTH CENTRAL ARIZONA

CITY           SKY/WX    TMP DP  RH WIND       PRES   REMARKS
GRAND CANYON   CLEAR     60   9  13 SW8       30.12R
WILLIAMS       CLEAR     63   7  11 S14G26    30.11S
PRESCOTT       CLEAR     69  18  14 S5        30.05S
FLAGSTAFF      CLEAR     61  12  14 SW10      30.16F
PAYSON         CLEAR     68  19  15 CALM      30.08S
PAGE           CLEAR     83   8   6 SW13G18   29.89R
$$

AZZ009>014-017-260500-
NORTHEAST ARIZONA

CITY           SKY/WX    TMP DP  RH WIND       PRES   REMARKS
WINSLOW        CLEAR     72  16  12 S14       30.06R
SAINT JOHNS    CLEAR     70  16  12 SW10      30.10R
WINDOW ROCK    CLEAR     60   0   9 CALM      30.16R
SHOW LOW       CLEAR     64  19  17 SW9       30.18R
$$

AZZ540-542>544-546-548-260500-
GREATER PHOENIX AREA

CITY           SKY/WX    TMP DP  RH WIND       PRES   REMARKS
PHOENIX        PTCLDY    91  23   8 W13       29.80R
BUCKEYE        CLEAR     82  21  10 W9        29.81S
DEER VALLEY    CLEAR     86  20   9 SW7       29.83R
SCOTTSDALE     CLEAR     89  26  10 W6        29.84R
MESA-GATEWAY   CLEAR     90  27  10 W10       29.84R
CHANDLER       CLEAR     90  25   9 W3        29.82R
$$

AZZ539-553-260500-
SOUTHWEST MARICOPA COUNTY AND PINAL COUNTY

CITY           SKY/WX    TMP DP  RH WIND       PRES   REMARKS
CASA GRANDE    PTCLDY    85  28  12 S5        29.86R
$$

AZZ503-504-507>509-260500-
SOUTHEAST ARIZONA

CITY           SKY/WX    TMP DP  RH WIND       PRES   REMARKS
TUCSON         CLOUDY    87  31  13 W6        29.96R
DAVIS-MONTHAN  PTCLDY    86  34  16 W6        29.94R
NOGALES        CLOUDY    79  31  17 CALM      30.05R
SIERRA VISTA   CLOUDY    78  27  15 W12       30.09S
DOUGLAS        MOCLDY    77  25  14 NW9       30.04R
SAFFORD        PTCLDY    85  22  10 N9        29.92R
$$

AZZ532-260500-
SOUTHWEST ARIZONA

CITY           SKY/WX    TMP DP  RH WIND       PRES   REMARKS
YUMA           CLEAR     78  38  23 NW15G29   29.84R
$$

CAZ041-043-047-048-061-525>527-560>570-260500-
SOUTHERN CALIFORNIA

CITY           SKY/WX    TMP DP  RH WIND       PRES   REMARKS
DOWNTOWN L.A.  PTCLDY    63  51  65 W3        30.04R
L.A. AIRPORT   PTCLDY    62  49  62 W22G30    30.05R
SAN DIEGO      MOCLDY    63  54  72 NW9       30.09
BURBANK        CLOUDY    62  48  60 W6        30.04R
ONTARIO        PTCLDY    60  49  66 SW13      30.03S
RIVERSIDE      CLEAR     59  49  69 W8        30.04R
PALM SPRINGS   CLEAR     77  42  28 NW15G32   29.85R
EL CENTRO NAS  CLEAR     73  41  31 W24       29.89R
IMPERIAL       CLEAR     72  44  36 W21G29    29.86R
BLYTHE         CLEAR     79  44  28 W20G28    29.82R
NEEDLES        CLEAR     87  28  12 S16       29.78R
$$

NVZ020-UTZ003-260500-
SOUTHERN NEVADA-UTAH

CITY           SKY/WX    TMP DP  RH WIND       PRES   REMARKS
LAS VEGAS      CLEAR     80  28  15 SW10      29.81R
SALT LAKE CITY CLEAR     79  38  22 CALM      29.81R
$$

NMZ009-TXZ055-260500-
NEW MEXICO-WEST TEXAS

CITY           SKY/WX    TMP DP  RH WIND       PRES   REMARKS
ALBUQUERQUE    CLEAR     75  12   9 SE10      30.03R
EL PASO        PTCLDY    84  14   7 SW5       29.97R
$$


........................KEY........................
SKY/WX - SKY CONDITION/WEATHER
TMP    - TEMPERATURE IN FAHRENHEIT
DP     - DEW POINT IN FAHRENHEIT
RH     - RELATIVE HUMIDITY IN PERCENT
WIND   - DIRECTION AND SPEED IN MILES PER HOUR (MPH)
VRB    - VARIABLE WIND DIRECTION
PRES   - MEAN SEA LEVEL PRESSURE IN INCHES OF MERCURY
         F - FALLING PRESSURE   R - RISING PRESSURE
         S - STEADY PRESSURE
VSB    - VISIBILITY IN MILES
HX     - HEAT INDEX IN FAHRENHEIT
WCI    - WIND CHILL INDEX IN FAHRENHEIT
TC     - TEMPERATURE IN CELSIUS WHICH IS ALSO KNOWN AS
         TEMPERATURE IN CENTIGRADE
AFB    - AIR FORCE BASE
         LUKE AFB IS LUKE AIR FORCE BASE
         DAVIS-MONTHAN IS DAVIS-MONTHAN AIR FORCE BASE
NAS    - NAVAL AIR STATION
         EL CENTRO NAS IS EL CENTRO NAVAL AIR STATION
N/A    - NOT AVAILABLE





USA.gov is the U.S. government's official web portal to all federal, state and local government web resources and services.